Location: Bucharest
(44.4268°N, 26.1025°E)
Time: 03:38:39
(UTC+03:00)

YUBILEINY - Visible Passes

Search period start: 28 June 2022 00:00
Search period end: 08 July 2022 00:00
Orbit: 1479 x 1507 km, 82.5° (Epoch: 27 June)

Date Brightness Start Highest point End Pass type
(mag) Time Alt. Az. Time Alt. Az. Time Alt. Az.
28 Jun ? 03:39:13 10° NNE 03:43:47 15° NE 03:48:19 10° E visible
29 Jun ? 04:44:33 10° N 04:52:39 38° ENE 05:00:39 10° SE visible
29 Jun ? 21:51:07 10° NW 21:51:51 10° NW 21:52:35 10° NW visible
30 Jun ? 03:55:42 10° NNE 04:02:15 22° ENE 04:08:43 10° ESE visible
01 Jul ? 03:08:10 10° NNE 03:11:22 12° NE 03:14:33 10° ENE visible
02 Jul ? 04:12:44 10° N 04:20:28 33° ENE 04:28:06 10° SE visible
03 Jul ? 03:24:06 10° NNE 03:29:56 19° ENE 03:35:43 10° E visible
04 Jul ? 04:30:01 10° N 04:38:29 48° ENE 04:46:49 10° SE visible
05 Jul ? 03:40:58 10° N 03:48:15 28° ENE 03:55:27 10° ESE visible
06 Jul ? 02:52:38 10° NNE 02:57:35 16° NE 03:02:28 10° E visible
06 Jul ? 04:47:29 10° N 04:56:17 69° ENE 05:04:58 10° SSE visible
07 Jul ? 03:58:09 10° N 04:06:21 41° ENE 04:14:26 10° SE visible
